Погода в Владивостоке

Погода в Владивостоке : погода сейчас, прогноз погоды и архив. Всё, что Вы хотите узнать о погоде в Владивостоке!

Хотите узнать прогноз погоды в Владивостоке? Тогда Вам сюда: Погода в Владивостоке

Поиск расширенной информации на нашем сайте:

Другие новости

Новости СМИ2

Главная страница сайта

Новости сайта

03.07.2017

Напоминаем, что на нашем специализированном сайте Метеоцентр.Азия вы можете получить высокодетализированные автоматические прогнозы погоды по пунктам России, СНГ и мира в авиационном формате (включающие направление и скорость ветра, видимость, явления погоды, количество и форму облачности, нижнюю и верхнюю границу облачности).

Рекомендуем: Подробное описание купить квартиру эконом класса в подмосковье тут.

Погода в Владивостоке - сегодня

Время (UTC), дата Ветер
(°,м/с) 
Видим.   Явления Облачность Т
(°С)
Тd
(°С)
f(%) Тe
(°С)
Pmin
(гПа)
dP
(гПа)
Po
(мм)
O2
(г/м3)
Тmin Tmax R s Состояние
почвы
03 19.11.17 340 (С) 10-15{17}  20000 м    6/6 600 м 
[Sc]
-10.8 -22.9 36 -18  1021.9  -0.2  748  315           
06 19.11.17 360 (С) 8-13{18}  20000 м    6/6 600 м 
[Sc]
-9.9 -21.9 37 -16  1021.7  -0.1  748  314           
09 19.11.17 360 (С) 4{15}  20000 м    ясно 
-11.1 -21.6 42 -15  1022.9  749  316    -9.9       
12 19.11.17 320 (СЗ) 6-12{12}  20000 м    ясно 
-10.3 -19.2 48 -16  1023.7  0.9  749  315           
15 19.11.17 360 (С) 5{12}  20000 м    ясно 
-11.9 -18.8 57 -17  1024.3  0.5  750  317           
18 19.11.17 360 (С) 20000 м    ясно 
-13 -19.7 57 -17  1024.2  -0.3  749  319           
21 19.11.17 020 (С) 20000 м    ясно 
-13.5 -19.7 60 -18  1023.9  -0.4  749  319  -13.7      неравномерный
мокрый или
старый снег
100% 
00 20.11.17 030 (СВ) 20000 м    8/8 600 м 
[Sc]
-11.6 -19.3 53 -11  1023.7  0.1  749  317           
03 20.11.17 010 (С) 20000 м    3/3 600 м 
[Sc]
-9.7 -19.8 44 -13  1021.8  -1.7  748  314           
06 20.11.17 010 (С) 20000 м    ясно 
-7.5 -19.1 39 -7  1020.3  -1.3  747  311           
09 20.11.17 300 (СЗ) 20000 м    ясно 
-8.3 -17.7 47 -10  1021.8  1.4  748  312    -7.3       
12 20.11.17 310 (СЗ) 9-14{16}  20000 м    8/8 600 м 
[Sc]
-6.6 -15.5 49 -13  1023.5  1.9  749  311           
15 20.11.17 320 (СЗ) 5-10{15}  20000 м    8/8 600 м 
[Sc]
-7.9 -15.8 53 -12  1025.3  1.6  751  313           
18 20.11.17 360 (С) 3{12}  20000 м    6/6 600 м 
[Sc]
-9.5 -15.8 60 -12  1027.1  1.6  752  315           
21 20.11.17 110 (В) 20000 м    3/3 600 м 
[Sc]
-9.6 -16.3 58 -9  1027.1  752  315  -10.1      неравномерный
мокрый или
старый снег
100% 
00 21.11.17 100 (В) 20000 м    4/4 600 м 
[Sc]
-7.8 -14.7 58 -9  1026.5  -0.5  751  313           
03 21.11.17 160 (Ю) 7{10}  20000 м    8/8 600 м 
[Sc]
-5.2 -12.5 56 -10  1024.8  -1.3  750  309           
06 21.11.17 160 (Ю) 10-13{14}  20000 м    10/0 средняя 
[As op]
-3.4 -6.8 77 -9  1021.8  -2.8  748  306           
09 21.11.17 140 (ЮВ) 12-14{14}  20000 м    10/0 средняя 
[As trans]
-3.1 -6 80 -9  1019.1  -2.6  746  305    -2.4       
12 21.11.17 150 (ЮВ) 10-12{14}  20000 м    10/0 средняя 
[As op]
-1.4 -3 89 -7  1017  -1.9  745  302           
15 21.11.17 140 (ЮВ) 7{13}  20000 м  {снег}  4/0 средняя 
[Ac cast]
+0.4 -0.4 94 -3  1015.3  -1.5  744  299           
18 21.11.17 140 (ЮВ) 20000 м  {снег}  ясно 
+0.6 +0.3 98 -3  1013.3  -2  742  298           
21 21.11.17 180 (Ю) 20000 м    ясно 
+0.7 +0.2 96 -1  1011.7  -1.5  741  298  -3      неравномерный
мокрый или
старый снег
100% 
00 22.11.17 250 (З) 20000 м    6/0 средняя 
[Ac trans]
+0.6 -0.2 94 -1  1012  0.3  741  298           
03 22.11.17 260 (З) 20000 м    ясно 
+3.6 -8.2 42 +2  1009.7  -2.1  740  295           
Время (UTC), дата Ветер
(°,м/с) 
Видим.   Явления Облачность Т
(°С)
Тd
(°С)
f(%) Тe
(°С)
Pmin
(гПа)
dP
(гПа)
Po
(мм)
O2
(г/м3)
Тmin Tmax R s Состояние
почвы

Для получения пояснительной информации подведите курсор к названию столбца.

ПОГОДА в Владивостоке - архив

Всё, что Вы хотите узнать о погоде в Владивостоке - удобно и подробно!

Выберите нужную дату (начиная с 1 января 2015* года) и нажмите кнопку "Найти".
Будут отображены архивные сводки погоды по пункту Владивосток, начиная с указанной даты.


Отображать данные в формате CSV (для использования в таблицах Excel)


Внимание! Наш архив погоды предназначен исключительно для личного некоммерческого использования в познавательных целях. Если Вам необходимы официальные справки о состоянии погоды (для производственных, юридических, коммерческих и т.п. целей), обращайтесь в органы Росгидромета.

*Примечание: данная дата относится к архиву по метеостанциям СССР (Россия, СНГ, Балтия).
Архив по метеостанциям Зарубежной Европы и Азии (кроме Китая) хранится 10 дней, по другим регионам земного шара (Китай, Африка, Америка, Австралия, Океания) - 1 день.

Владивосток - район местоположения метеостанции


Название, широта, долгота, высота метеостанции:
Владивосток (город) 43.1°ш. 131.9°д. 183 м над ур. моря [Российская Федерация]

Дополнительная информация

В oтличие oт бoльшинства пoгoдных сайтoв мы публикуем пoдрoбную метеoинфoрмацию в детальнoм прoфессиoнальнoм фoрмате.

Характеристики температуры и влажнoсти вoздуха измеряются на высoте 2 м в тени вдали oт зданий и деревьев.
Скoрoсть ветра измеряется на высoте 10 м (на урoвне рoста челoвека скoрoсть ветра ниже в 1.5-2 раза). Если метеoстанция нахoдится в гoрoде или в лесу, тo скoрoсть ветра занижена на 2-4 м/с пo сравнению с oткрытым местoм. Скoрoсть ветра над акватoриями крупных рек и oзёр, а также на вершинах хoлмoв на 2-5 м/с выше, чем в oбычных услoвиях.
Атмoсфернoе давление в разных тoчках местнoсти мoжет значительнo oтличаться oт давления на метеoстанции, в зависимoсти oт услoвий рельефа (при пoдъёме на 10 м давление пoнижается примернo на 1 мм рт.ст.).